Dauntless Aviation
Airports North America United States Colorado
98CO

NCMC HELIPORT

GREELEY, CO, USA

Airport Info
Suggest Updated Information for this Airport

Location

Latitude / Longitude: 40°24'53"N / 104°42'39"W
  40°24.8908'N / 104°42.6508'W
  40.4148 / -104.7108
Elevation: 4882.0 ft. (estimated)
Variation: 12E (1985)
From city: 00 miles N of GREELEY, CO

Operations

Facility use: Private
Sectional chart: DENVER
Control tower: no
Boundary ARTCC: DENVER
FSS: DENVER [1-800-WX-BRIEF]
Segmented circle: no

Communications

Nearby radio navigation aids

VOR radial/distance VOR name Freq Var
GLL 234oT/9.0 GILL VORTAC 114.20 13E
DVV 353oT/31.5 MILE HIGH VORTAC 114.70 11E
BJC 33oT/36.0 JEFFCO VOR/DME 115.40 11E
DEN 356oT/36.2 DENVER VOR/DME 117.90 11E
 
NDB name Hdg/Dist Freq Var ID

Services

Runway Information

Helipad H1

Dimensions: 40 x 40 ft.
Surface: PORTLAND CEMENT CONCRETE,NO SPECIAL SURFACE TREATMENT
Latitude: 40-24-53.4500N
Longitude: 104-42-39.0500W
Elevation: 4882.0 ft. ft.
 

Additional Remarks

Instrument Procedures

No published instrument procedures available
Topographic chart at:
Satellite photo at:
Airport distance calculator
From:
Weather Reports

METAR

KGXY
4.3nm NE
KGXY 201156Z AUTO 34004KT 10SM CLR 02/M01 A2977 RMK AO2 SLP079 T00171006 10050 20011 56013 FZRANO
KFNL
14.1nm W
KFNL 201156Z AUTO 00000KT 10SM CLR 05/02 A2977 RMK AO2 SLP047 T00500022 10100 20044 56012
KLMO
25.6nm SW
KLMO 201215Z AUTO 00000KT 7SM CLR 05/00 A2977 RMK AO2 T00450000
KEIK
28.5nm S
KEIK 201212Z AUTO 00000KT 10SM CLR 04/00 A2982 RMK AO2 T00380002
KBDU
33.1nm SW
KBDU 201212Z AUTO 25003KT 10SM CLR 10/00 A2976 RMK AO2
KDEN
34.0nm SE
KDEN 201153Z 23012KT 10SM CLR 11/M02 A2978 RMK AO2 SLP030 T01061022 10128 20078 56011

TAF

KDEN
34.0nm SE
KDEN 201135Z 2012/2118 20005KT P6SM FEW220 FM201900 24009KT P6SM FEW220 FM210700 28008KT P6SM SCT200 FM210900 35012KT P6SM SCT100 BKN200 FM211200 36014KT P6SM BKN100 FM211500 34015G22KT P6SM SCT100 BKN150
KBJC
35.7nm S
KBJC 201135Z 2012/2112 24005KT P6SM FEW220 FM201900 25009KT P6SM FEW220 FM210700 30008KT P6SM SCT200 FM210900 33012KT P6SM SCT100 BKN200
Safelog

 

Dauntless Aviation

© 2007-2017 Dauntless Aviation, all rights reserved
Information provided via PilotNav comes from a variety of official and unofficial data sources. As errors are possible, do not use PilotNav for primary flight planning purposes. Verify any information that you receive via PilotNav with current and canonical charts and other official documents. The material in this database is subject to database copyrights held by Dauntless Aviation and may not be copied without the express permission of Dauntless Aviation - licenses for use of part of all of this data are available for purchase; enquire via the Dauntless Aviation helpdesk. A number of mechanisms and markers exist in the database to protect against and identify infringement / copyright. Automated queries against this website are stictly prohibited, and all activity is logged and analyzed.